Wind_Speed
60 59 59 58 56 55 55 55 56 56 56 56 56 57 57 57 57 57 58 58 58 58 59 60 60 61 60 60 61 63 64 65 65 66 67 68 69 70 71 73 73 73 72 71 70 69 68 67 66 64 62 61 59 56 54 51 48 46 45 43 40 38 39 39 39 39 36 32 30 26 24 23 20 22 24 26 27 28 26 25 25 25 25 23 20
61 61 62 61 59 58 58 58 58 58 57 57 57 58 58 58 58 59 59 59 59 60 61 62 62 62 62 62 63 64 66 67 67 68 69 70 70 71 72 73 74 73 72 71 70 68 67 66 64 61 60 58 56 54 52 49 46 44 42 40 39 38 39 39 39 37 33 29 29 24 21 21 21 22 24 26 28 28 26 25 25 25 25 23 22
63 64 64 64 62 61 61 60 60 60 59 59 59 59 60 60 60 60 60 60 60 61 62 63 64 64 64 64 65 66 67 68 69 69 70 71 71 71 72 73 74 73 71 70 69 67 65 62 60 59 57 56 54 52 50 48 44 42 40 38 38 39 39 39 38 35 30 27 27 22 20 21 21 22 24 26 28 27 25 24 24 25 26 24 22
65 65 65 65 64 63 63 63 62 62 62 62 62 61 61 61 61 61 61 62 62 63 64 65 66 65 65 66 67 68 69 69 70 71 71 71 71 72 73 74 74 72 70 69 67 65 61 59 58 58 57 55 53 51 49 46 42 40 38 38 38 39 39 38 36 31 27 25 24 20 19 20 21 23 25 27 28 25 24 22 22 25 26 25 23
65 66 66 66 65 65 65 64 64 65 66 65 64 64 63 63 63 63 63 64 65 66 66 67 67 67 67 68 69 69 70 71 71 72 72 72 72 72 73 74 72 70 68 66 64 61 59 59 59 58 56 53 52 50 48 45 41 39 38 38 38 38 37 36 33 28 26 24 21 19 18 20 21 24 26 28 27 24 23 21 23 27 28 26 24
67 67 67 67 67 66 66 66 67 68 69 68 67 66 66 66 65 65 66 66 67 68 68 68 68 69 69 70 70 71 72 72 72 72 72 72 72 73 73 72 70 68 66 64 61 60 60 60 58 56 55 53 51 49 46 43 40 39 39 39 38 37 36 35 30 24 24 22 18 18 18 20 22 25 28 29 26 23 21 21 25 29 29 28 25
69 69 69 69 69 68 67 67 69 70 71 70 70 69 68 68 68 68 68 69 69 70 70 70 70 71 71 72 72 73 73 73 73 72 72 72 72 72 71 69 67 65 63 61 60 60 60 59 57 55 54 52 50 47 45 43 41 40 40 39 37 36 34 31 26 23 21 18 16 17 19 21 24 26 28 28 24 21 19 22 27 30 30 28 25
71 71 71 71 70 69 69 69 70 71 72 72 71 70 70 70 70 70 70 71 71 71 71 71 72 72 73 73 74 73 73 73 72 72 72 71 71 70 68 66 64 63 61 60 59 59 59 57 56 54 52 50 48 47 45 43 42 41 40 39 36 34 32 27 23 22 18 15 16 17 20 23 24 26 27 25 21 19 20 24 29 31 30 28 25
73 73 73 72 72 71 72 72 72 72 72 73 73 72 72 71 71 71 71 72 72 72 72 72 73 73 74 74 73 73 73 72 72 72 71 69 68 67 65 63 62 61 60 59 58 58 57 56 55 52 49 47 47 47 45 43 42 41 40 39 36 33 30 24 21 21 16 15 16 17 20 23 25 26 25 22 18 18 21 26 30 30 29 27 24
75 75 75 74 74 74 74 74 74 73 73 73 74 74 73 72 72 72 72 73 73 73 73 73 74 74 74 73 73 73 72 72 71 69 68 66 65 64 63 61 60 60 59 58 57 57 56 54 52 48 46 46 47 47 45 43 42 41 40 38 35 31 26 22 20 18 15 15 16 18 21 24 25 25 23 18 16 18 22 28 30 29 28 27 24
76 76 75 75 75 76 76 75 75 75 74 74 74 74 74 73 73 73 73 73 73 73 73 74 73 73 73 73 72 71 71 69 68 66 65 64 63 62 61 60 59 58 56 56 55 54 52 51 48 45 44 45 46 46 45 44 42 41 40 37 32 28 23 21 20 16 15 15 17 19 21 24 25 24 20 16 16 18 23 28 29 29 28 26 24
77 77 77 77 77 77 76 76 76 75 75 74 73 74 74 74 74 74 74 74 73 73 73 73 73 72 72 71 70 69 68 67 66 64 63 63 62 61 60 59 57 55 54 53 51 50 49 49 47 45 43 43 44 46 46 44 41 39 37 33 28 25 21 19 18 15 15 16 18 20 22 24 23 21 17 15 16 19 24 28 28 28 28 26 23
79 79 79 78 78 77 77 76 76 75 74 73 72 73 73 74 74 74 74 73 73 72 72 72 71 70 70 69 68 67 66 65 64 64 63 62 61 59 58 55 53 52 51 49 48 48 49 49 47 44 41 41 44 46 46 43 38 35 32 29 25 23 20 18 17 15 16 17 18 20 23 23 21 19 16 16 17 20 25 27 27 27 27 25 22
80 80 80 79 78 77 76 75 74 73 72 71 71 71 72 72 72 72 72 71 71 71 70 69 69 68 67 67 66 66 65 65 64 63 62 60 58 56 53 51 50 48 47 46 48 49 49 48 46 43 42 43 46 47 45 41 35 31 30 27 25 23 19 16 16 16 17 18 19 21 22 21 19 17 16 17 18 21 24 25 26 26 26 24 21
80 79 78 77 76 74 73 72 71 71 70 69 69 69 69 69 70 70 69 69 69 68 68 67 67 66 66 66 66 66 65 65 63 60 57 54 52 50 49 48 46 45 45 48 49 48 48 46 44 44 45 46 48 47 43 38 32 29 29 28 25 22 18 16 15 16 17 18 18 20 22 20 17 16 17 18 19 21 23 24 25 25 25 23 20
76 75 74 73 72 72 71 70 69 68 68 67 67 67 67 68 68 68 68 67 67 67 66 66 66 66 66 66 66 65 64 62 58 54 51 49 47 46 44 43 42 44 48 49 48 46 46 45 45 47 49 49 48 45 40 34 31 29 29 27 24 21 17 16 15 16 17 17 17 19 21 18 16 16 18 19 20 21 22 22 24 25 24 22 19
73 72 71 71 70 69 69 68 67 67 67 67 67 67 67 67 66 66 66 66 66 66 66 66 66 66 65 65 64 62 60 56 52 49 47 45 43 41 39 39 43 48 49 48 46 45 45 46 48 50 51 49 46 42 37 31 30 30 29 26 22 19 17 16 16 17 17 16 16 20 20 17 15 16 18 20 20 21 21 21 22 24 24 21 19
71 71 70 70 69 68 68 67 67 67 67 67 66 67 67 66 66 66 66 66 66 66 65 65 64 63 62 62 60 57 53 49 47 46 44 41 37 36 37 42 47 49 48 46 45 44 46 48 50 51 50 47 42 36 32 29 30 30 28 23 19 17 16 17 18 18 18 16 17 20 20 17 15 16 19 20 21 21 20 19 20 22 23 21 18
71 71 70 70 69 68 68 67 67 67 67 67 67 68 67 67 66 66 66 65 63 63 63 62 61 59 58 56 52 49 46 44 43 42 38 34 33 36 40 45 47 47 46 44 44 44 47 49 50 50 47 43 37 31 28 29 30 29 26 21 17 16 16 17 18 19 18 16 16 19 20 18 15 16 19 21 21 21 20 18 18 20 23 22 19
72 72 71 71 70 69 69 69 68 69 69 69 69 69 69 68 67 66 64 61 60 59 59 57 54 52 49 46 44 43 42 40 38 34 32 33 36 40 44 45 46 46 44 43 44 45 47 48 48 47 42 37 33 29 28 30 30 29 24 20 16 15 15 17 18 18 17 16 17 20 21 19 16 16 18 20 21 21 19 17 17 19 22 22 20
73 72 72 72 71 70 70 70 70 70 70 70 71 71 70 69 68 66 62 59 57 55 51 47 44 42 41 41 41 40 37 34 31 31 33 37 41 43 45 46 47 46 44 43 43 44 45 46 45 42 37 33 31 30 30 31 31 28 23 18 15 14 15 15 16 16 16 16 18 20 22 21 18 17 18 20 22 22 19 16 16 18 21 22 20
74 73 72 72 72 71 71 70 70 70 70 70 70 69 69 68 66 64 61 57 53 47 42 39 38 38 39 40 39 34 31 29 31 34 38 41 43 45 47 48 48 45 43 42 42 42 42 43 42 38 34 32 32 32 32 32 30 27 22 16 14 15 14 14 14 15 15 16 18 21 23 22 19 17 18 21 23 23 20 16 15 18 20 21 20
74 73 73 73 73 72 71 70 68 67 66 64 62 62 61 61 59 56 54 51 47 42 39 38 38 38 40 39 34 29 29 31 35 38 41 43 46 48 49 49 46 44 41 39 38 40 42 42 39 36 34 33 34 34 34 32 30 26 21 16 14 14 14 14 14 14 15 16 19 21 23 22 20 18 19 21 24 23 20 16 16 18 20 21 20
75 74 74 74 73 72 69 68 64 59 56 54 53 52 51 49 48 46 46 44 41 39 38 38 37 37 36 33 29 29 32 36 39 42 44 46 48 50 50 48 45 42 39 36 37 40 40 38 35 34 34 35 35 35 35 32 29 26 21 17 14 14 15 15 15 15 16 17 20 21 22 22 20 18 19 22 24 23 20 17 16 18 20 20 20
72 72 72 72 70 69 66 62 58 53 49 47 45 43 42 41 42 41 40 39 37 35 36 36 36 34 32 31 31 34 37 39 42 46 48 49 50 50 48 46 42 38 35 36 39 38 35 33 32 33 33 34 35 35 34 32 29 25 21 17 15 15 15 16 16 16 17 18 20 21 22 23 20 19 20 22 24 23 21 18 16 18 20 20 20
67 67 66 64 62 62 61 56 51 46 43 40 38 38 38 38 38 37 36 35 33 32 33 34 34 33 33 33 35 38 41 45 48 50 51 51 50 48 46 43 38 34 35 37 37 35 32 31 31 32 33 34 34 34 33 31 28 25 21 17 15 15 16 17 18 18 18 19 20 21 23 23 21 20 21 23 23 23 21 18 17 18 21 20 20
63 64 62 60 58 55 54 51 46 41 39 37 36 37 37 35 34 34 34 34 34 33 33 34 34 35 35 36 40 44 48 51 52 51 51 49 47 45 41 37 36 35 36 35 33 33 32 31 31 33 34 33 33 32 30 28 26 23 19 16 14 14 16 17 18 18 19 19 21 22 23 24 22 21 22 23 23 22 21 18 18 19 20 20 20
60 60 58 59 59 55 52 52 47 45 44 42 39 38 37 36 36 36 37 39 38 37 36 35 35 37 39 43 48 52 53 53 51 49 47 45 43 41 37 35 37 36 33 32 32 32 31 31 32 33 33 32 31 29 27 25 22 20 18 16 14 14 15 17 17 18 18 20 22 22 23 24 22 21 22 22 21 21 21 19 19 19 20 19 19
58 58 58 59 60 59 59 59 57 55 54 52 48 44 42 42 43 45 46 46 45 42 42 42 44 46 49 52 54 54 53 51 49 46 44 42 40 38 37 37 36 33 31 32 33 32 32 31 31 31 30 28 27 26 24 21 19 16 16 15 15 15 16 17 17 18 18 20 22 23 23 23 21 21 21 21 21 21 22 21 20 20 19 18 19
56 56 58 59 60 61 62 63 64 62 61 59 56 54 54 55 56 57 57 55 53 52 53 53 54 54 55 55 54 53 51 48 45 43 41 40 38 38 37 36 33 31 32 33 32 32 31 30 28 27 26 25 25 23 21 19 17 15 15 16 17 17 17 17 17 17 19 20 21 23 24 23 21 23 24 25 24 22 22 22 21 20 18 17 19
54 55 56 57 58 58 58 61 63 64 63 61 60 60 60 61 60 60 60 60 59 58 57 56 55 55 54 54 53 51 48 45 42 40 38 38 38 38 36 33 32 32 32 32 31 31 28 27 26 24 24 24 22 21 20 18 16 15 15 17 18 18 18 18 18 19 20 20 20 22 24 24 23 24 26 25 22 21 22 22 21 19 17 17 19
53 54 55 56 58 57 57 59 60 61 60 59 59 58 57 57 57 57 57 58 58 57 56 55 55 55 54 53 52 48 44 41 39 37 37 38 37 36 33 32 32 32 31 30 30 29 26 24 23 24 24 23 21 20 18 17 16 15 16 17 19 19 19 20 22 24 24 21 21 22 24 24 22 22 23 23 21 21 22 21 21 20 17 17 19
53 53 54 55 57 57 58 59 59 58 57 56 56 55 55 56 55 55 54 55 56 56 56 56 56 55 53 51 49 45 42 39 37 36 36 35 34 32 31 31 31 30 29 30 29 27 25 23 22 24 24 23 21 19 17 16 16 16 16 18 19 19 20 22 24 27 27 26 24 24 26 25 24 25 25 25 23 22 22 21 22 21 18 18 18
51 52 52 53 54 55 56 58 59 58 56 55 53 52 54 56 55 53 55 55 55 56 56 56 55 54 51 49 46 43 40 37 34 33 32 31 30 30 30 30 29 29 29 30 29 27 23 21 22 24 24 21 20 19 18 17 17 17 18 19 19 20 21 23 24 27 30 30 30 30 32 31 30 30 30 28 24 22 22 22 23 21 19 18 19
51 52 52 53 53 54 54 56 58 58 56 54 53 52 52 55 56 55 56 55 55 55 55 55 54 51 49 47 44 41 38 34 30 29 28 28 29 29 29 28 28 29 29 30 30 27 22 20 22 23 23 20 19 18 17 18 19 20 20 20 20 21 22 22 22 26 30 33 34 34 35 34 33 33 31 26 22 20 20 21 22 20 19 20 20
53 54 54 53 53 54 54 55 58 58 57 56 54 52 52 56 59 58 57 56 54 54 53 52 51 49 47 44 42 39 35 31 27 27 27 28 28 28 26 26 27 28 29 30 30 26 21 20 21 22 21 20 19 18 18 18 17 17 18 19 19 21 23 22 23 26 29 30 30 31 31 30 28 26 22 19 17 18 20 21 20 19 21 21 20
54 55 54 54 54 54 54 55 56 57 56 55 54 53 55 58 59 58 57 56 54 53 51 50 49 47 44 42 40 37 33 29 27 27 27 27 27 25 24 25 27 28 29 29 29 25 21 19 19 20 20 21 19 17 17 15 14 15 17 17 19 19 20 21 21 24 24 22 22 23 23 22 20 17 15 15 16 18 20 20 21 21 22 21 19
55 55 53 51 51 49 49 51 52 53 54 55 56 56 57 58 58 57 56 54 53 52 50 48 47 45 43 41 39 36 32 29 26 25 24 24 24 24 24 25 26 27 28 29 29 25 20 18 19 19 21 21 19 16 13 12 14 17 17 17 18 16 17 18 18 20 19 17 17 18 17 16 16 15 15 17 18 19 20 21 23 23 21 19 18
55 54 52 51 52 51 50 51 51 51 52 54 56 56 56 55 55 54 53 52 51 50 49 47 46 44 43 41 39 37 34 29 26 23 22 23 24 24 25 25 25 27 29 30 28 24 20 19 20 20 22 22 18 14 12 12 17 19 18 17 17 15 16 18 17 18 18 17 17 18 16 16 16 16 16 16 17 18 19 20 21 21 20 18 19
55 54 54 53 55 57 56 56 55 53 52 52 52 52 51 51 51 52 52 51 50 48 47 46 45 44 43 41 39 37 34 30 27 25 23 24 24 25 25 24 26 28 30 31 28 23 21 21 22 23 23 21 17 14 14 15 19 20 17 16 16 15 15 17 17 18 18 17 18 16 14 15 15 15 15 16 17 18 19 20 22 23 23 22 20
55 55 55 55 56 56 56 58 58 58 57 55 53 51 49 49 50 50 50 49 48 47 45 45 44 42 42 40 38 37 35 33 29 26 24 24 25 25 25 26 27 29 31 30 27 24 23 23 24 24 22 19 15 14 16 18 19 19 17 16 15 14 13 13 14 15 16 15 14 13 12 13 14 15 17 19 21 20 19 21 24 24 23 22 21
55 54 55 55 55 54 54 55 57 58 58 57 55 53 50 49 49 48 47 46 46 45 44 43 42 41 41 39 38 37 36 35 34 30 28 27 27 26 27 28 28 29 30 29 27 24 24 25 24 23 21 17 14 15 17 18 18 18 18 17 15 14 11 10 12 13 15 14 13 12 13 14 16 17 18 20 22 22 22 22 23 24 23 23 22
53 52 52 52 51 51 51 52 53 54 55 54 53 51 49 48 47 46 45 44 43 43 42 41 41 40 39 38 37 37 36 37 36 34 32 30 29 28 28 29 29 29 29 28 26 25 25 25 24 22 19 15 14 16 17 18 19 19 19 16 14 12 10 10 10 11 13 14 14 15 16 18 18 18 18 19 21 24 25 24 23 23 23 23 24
50 49 48 47 47 47 47 48 48 48 49 50 49 48 46 45 44 43 42 42 41 40 39 39 39 38 37 36 36 36 36 35 35 35 33 31 30 29 30 30 29 29 28 27 26 26 25 24 23 20 16 14 15 16 17 19 19 19 18 16 14 11 10 11 10 9 11 13 15 17 19 21 21 22 22 22 23 24 25 24 24 23 23 24 25
47 46 45 43 42 42 43 43 43 43 44 45 44 43 42 41 41 41 41 40 39 38 38 37 37 36 35 35 34 35 34 34 34 33 33 31 30 30 30 29 28 27 27 26 26 25 23 21 20 18 15 14 15 16 17 18 18 18 18 17 15 13 11 11 10 9 9 11 14 16 18 20 21 21 21 21 22 23 23 24 25 26 26 27 27
44 43 42 40 39 39 39 39 39 39 39 39 38 37 38 39 39 39 39 38 37 36 36 35 35 34 34 33 33 33 33 33 33 33 33 32 31 30 29 27 26 26 25 25 24 22 20 19 18 16 13 13 15 16 17 18 18 19 19 18 17 15 12 10 10 10 10 11 13 15 17 19 21 20 19 20 23 25 26 27 28 28 29 29 28
41 40 39 37 36 36 35 35 35 35 35 34 34 34 36 37 37 37 37 36 35 34 34 33 33 34 33 33 32 32 32 32 32 32 32 31 29 28 26 26 25 25 24 23 22 20 19 18 17 15 13 14 15 16 18 18 20 20 20 19 18 16 13 10 9 10 11 13 15 16 18 20 23 23 23 25 26 27 28 28 29 30 31 31 30
38 38 36 35 34 33 32 32 32 31 31 31 31 32 33 34 35 35 35 34 33 31 30 30 31 32 33 33 33 32 32 32 31 31 29 28 27 26 25 24 24 24 23 22 21 20 19 18 16 15 14 15 16 18 19 20 21 21 21 19 18 17 15 11 9 9 10 12 14 17 20 23 25 25 26 27 28 28 29 29 30 31 31 32 32
36 35 34 32 32 31 30 29 28 28 28 26 27 29 31 31 32 33 34 34 32 30 29 28 28 29 30 31 32 32 31 30 29 28 28 27 26 25 24 23 23 23 23 22 21 20 19 18 17 17 17 19 21 22 22 22 22 22 20 19 18 17 16 13 11 10 10 11 12 14 17 20 23 24 26 27 29 30 31 31 32 32 33 34 35
34 33 32 31 31 30 29 27 26 25 22 20 22 26 27 28 30 31 33 35 34 32 31 30 28 27 28 28 29 28 27 26 26 26 26 26 25 24 23 23 24 24 23 22 21 20 20 20 21 22 23 24 25 24 24 24 23 22 20 19 18 17 17 15 13 12 12 12 12 13 14 16 18 20 22 26 30 32 34 35 35 35 36 36 37
32 32 31 31 30 29 27 25 23 20 15 14 18 23 25 25 26 26 29 33 33 32 32 32 32 30 29 28 28 28 27 26 26 26 26 25 25 25 25 25 25 25 24 23 22 22 23 24 26 27 27 27 26 25 25 25 24 22 20 18 18 17 17 16 16 15 14 14 14 14 14 15 16 17 19 22 25 28 32 35 36 37 38 39 40
Wind_Direction
272 273 275 277 278 280 281 280 280 281 281 283 284 285 287 288 289 291 292 293 295 296 296 297 298 298 298 299 300 300 301 302 303 304 305 305 306 307 307 308 310 311 312 312 312 313 314 314 314 314 314 314 315 315 315 314 315 315 316 316 315 315 315 315 315 316 316 317 318 316 312 309 305 308 311 316 323 324 319 317 321 325 326 322 313
272 274 275 277 278 280 281 281 281 282 283 284 285 286 287 288 289 290 291 292 294 295 295 296 296 297 297 298 299 300 301 301 302 303 304 305 306 307 307 308 310 311 312 312 312 313 314 314 314 313 313 314 315 314 314 313 314 315 315 314 314 314 314 313 314 315 316 317 317 312 308 306 304 310 313 316 321 321 316 315 321 325 323 317 309
273 275 276 277 278 280 281 281 281 282 284 285 286 287 287 288 289 290 290 291 293 293 294 295 295 296 297 298 299 299 300 301 302 303 304 305 306 307 308 309 310 311 311 312 313 314 314 314 314 314 314 314 314 313 313 312 312 313 313 313 313 313 312 312 313 314 314 315 315 309 303 303 304 310 312 314 318 317 314 315 321 324 321 313 305
273 275 276 277 278 279 280 281 281 283 284 285 286 287 288 289 290 290 291 291 292 293 293 294 294 295 296 297 298 299 300 301 302 303 304 305 307 307 308 309 310 310 311 312 313 314 314 315 315 314 314 314 313 313 312 311 311 311 311 311 311 311 311 311 312 313 312 311 311 307 301 302 304 308 310 313 316 314 313 316 320 323 320 313 303
273 275 276 277 278 279 280 281 282 283 284 285 286 288 289 289 290 291 291 291 292 292 292 293 294 295 296 297 298 299 299 300 301 302 304 305 306 307 307 308 309 310 311 312 313 313 314 314 314 314 313 313 313 312 311 310 310 310 310 310 310 310 309 310 312 311 311 309 307 305 299 300 304 306 309 313 314 313 313 314 319 322 320 315 306
273 274 276 277 278 278 279 281 282 283 284 285 286 288 289 289 290 291 291 291 291 292 292 293 294 295 295 296 297 298 299 300 301 302 303 305 305 306 306 307 309 310 311 312 312 312 313 313 313 313 313 312 312 311 310 309 309 309 309 309 308 308 308 309 310 310 310 308 304 300 296 298 302 305 311 314 313 314 314 315 320 322 320 316 310
272 273 274 276 277 278 279 280 281 282 283 284 285 287 288 289 289 290 290 290 291 291 292 293 294 295 295 296 296 297 298 299 301 302 303 304 304 305 306 307 309 311 312 312 312 312 312 312 312 312 312 312 312 312 310 308 308 308 308 307 307 307 307 308 309 310 308 305 300 294 294 298 301 306 311 313 312 313 313 316 321 321 319 316 312
271 272 273 274 276 277 278 279 279 280 282 283 285 286 287 288 288 288 289 289 290 291 292 293 294 294 295 296 296 297 298 299 300 301 302 303 304 305 306 308 309 311 312 312 311 311 311 311 311 312 312 311 312 312 310 308 308 308 307 307 306 305 306 306 308 312 308 301 295 292 295 298 304 309 312 312 312 312 313 318 321 320 319 317 314
270 271 272 273 275 276 277 277 278 279 281 282 284 285 286 286 286 287 287 288 289 290 291 293 293 294 295 295 296 297 298 299 300 300 301 303 304 305 307 308 310 311 311 311 310 310 310 310 311 312 312 312 312 313 311 309 308 307 307 306 304 303 303 303 309 312 307 298 291 290 295 301 309 313 312 312 310 311 315 319 320 320 320 319 316
268 269 271 272 274 274 275 276 277 278 280 281 282 284 284 285 285 285 287 288 289 290 291 292 293 293 294 295 296 297 298 298 299 300 302 303 304 306 307 309 310 310 309 309 309 309 309 310 311 313 313 313 313 313 312 310 308 307 306 304 302 301 300 303 311 311 304 294 286 288 295 305 313 313 313 310 308 311 316 320 320 321 322 321 319
267 268 270 271 272 273 274 275 276 277 278 280 281 282 283 284 284 285 286 287 288 289 290 291 292 292 293 294 296 297 297 298 299 301 302 303 305 306 307 309 309 308 308 309 309 309 310 311 312 313 313 313 314 314 312 310 309 308 306 303 300 298 298 304 311 311 301 288 283 288 297 309 313 312 311 306 307 311 317 321 322 323 324 323 322
266 267 268 269 271 272 273 274 276 277 278 279 280 282 283 283 284 285 286 286 287 288 289 290 291 292 293 294 295 296 297 298 299 301 302 304 305 306 307 308 307 307 308 309 309 310 310 311 311 311 312 314 314 314 313 311 310 309 306 303 299 296 299 306 310 308 296 285 285 291 301 312 313 312 308 301 306 309 318 325 325 326 326 325 323
266 267 268 269 271 272 274 275 276 277 278 279 280 281 282 283 283 284 285 285 286 287 288 289 290 292 293 294 295 296 297 298 299 301 302 303 305 306 306 306 307 307 308 309 310 310 309 310 310 310 312 315 315 314 313 312 312 310 308 304 299 297 300 306 308 302 289 284 288 293 304 312 312 311 303 299 304 308 320 328 328 328 328 326 323
266 267 269 271 272 274 275 275 276 277 278 280 280 281 281 282 282 283 283 285 286 287 288 289 290 292 293 294 295 296 296 297 299 301 302 304 304 304 304 306 307 307 308 310 310 309 309 310 311 312 314 315 315 314 312 311 311 309 308 305 300 298 300 304 305 297 284 283 289 293 305 311 308 308 300 297 302 308 321 329 330 330 329 327 323
267 269 270 272 273 274 275 275 276 277 279 279 280 280 280 280 281 282 283 284 285 287 288 290 291 292 293 294 295 295 296 297 299 301 303 304 304 304 305 306 307 307 309 310 309 309 309 311 312 313 313 314 313 312 311 308 307 307 308 305 299 298 300 302 300 293 283 282 287 292 304 309 304 304 296 296 300 307 320 329 332 332 331 328 323
269 270 271 272 273 274 275 275 276 277 278 278 279 279 279 280 280 282 283 285 286 287 289 290 291 292 294 294 294 294 295 297 299 301 303 303 304 305 306 305 306 309 310 309 309 309 310 312 312 312 312 312 311 311 310 305 303 305 307 303 299 298 300 299 295 290 283 281 283 289 302 305 300 299 293 294 298 306 318 328 332 332 331 329 324
269 270 271 271 272 273 274 275 276 277 277 277 278 278 279 280 281 283 284 285 287 288 289 291 292 292 293 293 293 293 295 297 299 299 301 303 305 305 305 306 309 310 310 308 308 309 310 311 311 311 311 310 310 310 308 302 301 304 304 302 298 299 299 296 290 284 281 280 281 287 300 302 294 293 291 292 295 304 315 325 332 331 330 328 324
269 270 270 271 272 273 274 275 276 276 277 277 278 278 279 280 282 283 285 286 288 289 290 291 291 291 292 292 292 293 295 297 297 298 301 304 304 304 305 308 310 309 308 308 308 310 311 311 311 310 310 310 310 310 306 301 301 302 302 300 297 298 297 292 285 279 276 277 280 285 297 299 290 289 289 289 292 301 311 321 331 331 329 327 322
269 270 270 272 273 274 275 275 276 276 277 277 278 279 280 281 282 284 286 287 289 290 290 290 290 290 290 290 291 293 294 295 296 300 302 303 302 304 307 310 310 309 308 308 309 311 311 311 310 310 310 310 310 309 306 302 300 299 299 296 294 295 292 286 280 277 274 275 276 280 292 296 288 287 288 286 289 297 306 317 329 330 328 326 321
269 270 271 272 273 274 275 275 276 277 277 278 279 280 281 282 283 284 286 288 290 289 288 289 289 289 288 289 290 291 292 293 297 300 300 300 303 306 310 312 311 310 308 307 309 311 311 310 309 310 309 309 309 308 306 302 298 297 296 292 290 290 286 281 276 274 273 273 274 276 286 293 287 284 285 283 285 292 300 311 325 329 327 325 320
269 270 272 273 274 274 275 276 277 277 278 279 279 280 281 281 282 283 285 287 288 287 286 287 286 286 286 287 289 290 291 294 296 297 298 301 305 309 312 313 313 310 308 308 311 312 311 310 310 310 309 308 307 306 304 301 297 295 294 288 286 286 284 279 274 271 268 269 275 277 284 289 285 280 281 280 281 288 294 304 320 327 325 323 319
269 270 271 272 273 274 275 276 277 277 278 278 279 279 279 279 280 281 283 285 284 283 283 283 283 283 285 287 288 289 291 292 294 297 300 303 307 311 313 314 312 309 309 311 312 312 312 312 312 311 309 307 306 305 303 300 297 294 291 284 280 283 282 277 272 269 264 266 274 277 281 284 283 277 276 277 278 284 289 296 314 325 323 319 318
268 269 270 271 272 273 274 275 276 277 277 277 277 278 278 279 279 280 281 281 279 279 280 281 281 283 285 285 285 285 288 291 294 299 303 306 309 311 312 312 310 309 311 313 313 313 315 314 313 311 308 305 304 302 300 299 296 292 287 279 275 278 280 277 271 267 265 268 274 275 276 279 281 275 272 273 276 281 284 289 306 322 322 315 315
267 268 269 270 271 272 273 274 275 274 274 275 276 278 279 279 278 277 278 277 276 277 279 280 280 283 283 281 280 283 288 292 296 302 305 307 309 310 310 310 309 310 312 313 314 315 316 316 314 311 306 303 301 299 297 296 294 290 284 277 274 275 277 276 274 270 268 270 271 271 272 275 279 272 268 270 274 280 279 283 300 317 322 312 311
267 268 268 269 270 270 271 272 271 271 273 275 276 276 276 275 274 274 274 275 277 279 280 281 280 280 278 277 280 285 290 294 299 304 306 307 307 308 308 309 310 311 312 312 314 316 317 317 316 311 307 304 301 299 297 295 293 289 283 276 273 274 276 275 273 270 267 266 266 267 269 272 277 271 265 267 271 276 274 278 294 311 320 310 306
266 267 267 267 268 268 268 268 268 269 271 272 271 271 271 271 271 271 272 274 278 282 284 283 281 279 277 278 282 287 294 297 301 304 304 305 305 306 307 310 311 311 312 313 315 317 318 317 316 312 308 305 302 300 298 295 292 288 283 276 273 272 274 273 270 266 264 263 263 265 267 271 277 272 266 267 269 272 269 274 288 304 316 307 300
265 265 265 263 263 263 263 264 264 265 267 267 266 268 268 268 268 270 273 277 282 286 286 284 282 280 279 281 286 292 297 299 301 302 303 303 304 306 308 310 310 311 313 315 317 318 316 315 315 312 308 306 304 302 299 294 290 286 281 277 273 270 270 271 269 265 263 264 264 264 266 272 276 272 268 267 268 268 266 270 284 299 312 304 295
263 264 263 261 260 257 257 259 260 261 263 264 263 264 266 267 268 270 274 279 284 286 285 283 281 280 282 286 291 295 297 299 300 301 301 302 303 306 307 308 311 312 314 316 318 317 314 313 313 311 308 307 305 303 298 291 286 281 277 276 273 270 269 271 270 266 261 262 263 263 265 271 274 272 268 266 268 268 264 269 282 296 308 301 292
261 262 262 261 260 257 256 257 257 259 260 261 260 260 263 266 269 271 275 279 282 283 282 282 281 282 284 289 293 295 297 299 300 300 300 301 302 303 305 309 312 313 313 316 318 315 312 312 312 310 309 309 308 304 299 291 284 276 275 275 274 271 267 266 267 266 262 260 261 263 265 269 271 271 267 266 270 269 264 269 281 294 303 295 288
260 260 260 261 261 260 260 259 259 260 260 260 260 261 264 268 270 271 273 277 280 281 282 283 283 284 287 290 294 295 297 298 299 299 298 299 300 302 307 310 311 311 313 317 318 315 313 314 314 313 314 314 312 308 302 295 287 278 276 277 277 274 269 269 272 271 266 263 262 263 264 265 266 267 270 271 271 267 264 272 282 291 298 288 282
259 258 258 259 261 262 262 262 262 263 263 264 265 267 270 272 272 271 272 275 279 281 283 284 285 286 289 291 293 295 296 297 297 296 296 298 300 303 308 308 308 309 313 317 320 318 316 316 316 317 318 317 315 312 306 301 294 286 281 280 281 278 272 274 281 283 279 272 267 266 266 267 267 267 270 271 269 268 267 275 282 285 292 282 277
258 258 257 258 261 262 263 264 264 265 267 268 271 273 274 275 275 274 274 276 279 282 284 285 286 287 289 290 292 293 294 294 294 294 296 298 300 304 306 305 306 309 314 320 323 320 318 317 318 319 318 316 316 315 311 306 301 294 287 281 279 277 271 268 269 273 277 273 265 263 264 266 268 267 267 269 273 271 268 277 279 276 285 278 273
258 259 259 259 261 263 264 265 266 267 269 270 273 275 276 276 276 276 277 278 280 282 283 284 285 287 288 289 290 291 291 291 292 293 296 298 300 302 303 303 306 311 317 324 324 320 318 319 322 325 323 319 318 317 313 308 303 298 292 284 280 276 271 266 263 264 268 265 257 257 263 264 264 267 271 276 278 272 268 277 275 269 280 278 271
258 259 259 260 261 263 265 267 268 269 270 271 272 274 276 276 276 276 277 278 279 281 282 284 285 286 288 288 289 289 289 290 291 293 295 297 298 299 301 304 308 314 320 325 324 321 320 322 326 329 327 323 320 317 313 309 306 301 295 290 288 282 274 268 266 264 264 262 256 258 265 266 267 271 277 280 278 273 272 275 268 264 276 276 269
258 258 258 259 260 262 264 267 269 269 270 269 270 270 270 272 275 277 278 279 279 280 282 283 284 285 286 287 287 286 287 288 288 290 293 294 295 298 301 305 311 317 322 325 325 322 319 322 328 329 328 326 322 318 314 311 307 302 297 294 291 284 278 272 265 261 260 260 258 260 264 267 271 275 278 279 274 270 270 269 263 263 275 278 272
257 257 257 258 260 261 263 266 268 269 270 270 270 268 265 268 273 276 278 279 279 280 281 281 282 283 284 284 283 284 284 284 283 285 289 291 294 297 301 308 315 319 323 325 325 322 318 321 328 329 329 329 324 318 315 312 309 305 303 300 294 287 282 277 267 260 259 261 262 262 265 266 270 273 272 268 263 261 263 264 260 263 276 278 277
257 257 259 260 261 262 263 264 267 268 269 270 269 268 268 270 273 275 277 278 278 279 279 279 279 280 280 279 279 279 279 279 281 283 287 290 293 297 303 311 317 319 323 325 324 320 317 322 327 328 330 330 324 317 314 313 315 316 314 308 301 293 286 279 269 262 263 268 269 266 265 266 266 263 254 249 252 256 261 263 262 269 277 274 276
258 258 260 261 262 263 262 261 262 264 266 267 267 268 269 270 272 273 275 276 276 277 277 277 277 277 276 275 274 274 273 275 280 283 284 287 291 298 305 312 317 319 322 323 322 319 318 322 325 327 330 330 323 314 307 309 320 324 321 313 306 299 289 281 267 258 261 268 271 268 265 262 259 252 244 244 248 253 262 267 270 273 273 271 278
259 260 260 259 260 263 264 264 265 266 267 267 268 268 268 269 270 272 272 273 274 274 275 274 274 273 272 272 271 270 269 270 276 281 283 286 291 298 305 311 314 316 319 322 321 319 318 320 321 323 326 327 321 306 293 299 315 321 320 318 315 305 290 282 267 255 256 258 262 263 260 256 253 249 247 249 252 258 266 270 272 272 266 268 280
260 261 261 260 260 262 264 266 268 270 270 270 270 270 270 270 271 271 271 272 272 272 272 271 271 270 270 270 269 268 267 267 272 280 284 288 294 299 304 308 311 313 316 320 320 317 316 316 317 319 321 324 317 299 288 295 311 318 319 324 326 312 294 283 270 257 253 253 252 250 248 248 250 253 254 252 254 261 268 270 271 270 267 270 277
260 260 261 261 261 262 263 265 267 268 269 270 270 271 271 271 271 271 271 271 270 270 269 269 268 267 267 268 267 266 265 264 269 277 285 291 296 301 304 306 309 312 315 318 318 316 315 316 318 319 320 321 312 297 292 298 311 320 321 325 331 327 310 291 275 256 244 236 233 234 240 247 254 261 261 256 253 254 258 262 262 263 267 271 276
260 261 261 262 263 263 263 264 265 267 268 269 270 271 271 271 270 269 269 269 268 267 267 266 265 265 265 266 267 266 265 263 264 272 282 290 296 299 302 305 309 311 313 315 315 314 314 315 318 319 321 319 308 299 296 301 312 321 322 322 328 335 327 305 283 259 242 230 225 231 241 247 254 261 261 257 254 250 248 248 249 256 266 274 280
260 260 261 262 263 263 263 263 263 265 267 268 269 270 271 270 269 268 267 267 266 266 265 264 264 264 265 266 267 267 266 264 263 268 278 287 293 297 300 304 306 309 310 312 312 312 312 313 315 317 319 315 304 301 300 303 312 317 320 320 322 329 327 320 306 276 254 239 231 233 239 241 243 248 252 253 253 253 254 254 255 263 272 278 283
257 258 259 259 260 262 262 262 263 264 265 267 268 269 269 269 268 267 267 265 265 265 265 264 265 265 266 267 268 267 266 265 264 268 276 285 291 294 298 301 303 305 307 309 310 310 310 312 313 315 316 310 302 303 303 305 311 315 318 317 315 320 321 325 326 301 268 246 236 236 240 241 241 243 247 252 257 259 262 266 271 276 280 283 283
252 253 254 255 256 258 260 261 263 264 264 265 267 268 268 267 267 266 266 265 265 265 265 266 266 267 269 270 269 268 266 265 266 270 276 283 288 292 295 297 299 302 305 307 309 309 310 312 312 314 314 306 303 306 308 310 312 314 317 315 311 310 312 320 328 315 284 259 248 247 250 252 253 252 252 257 265 268 270 274 278 281 282 282 281
249 249 250 252 253 254 256 259 261 263 263 264 265 266 267 267 266 266 266 266 266 266 266 267 269 270 270 270 269 268 267 267 270 273 277 281 284 287 291 293 296 300 303 306 308 308 309 311 312 314 313 309 308 310 312 314 315 315 314 311 306 301 301 310 319 317 299 276 261 259 263 264 264 265 266 267 270 272 274 276 277 279 279 278 277
246 246 246 248 250 252 253 256 258 260 261 263 265 266 267 267 268 268 268 268 268 269 269 270 270 270 269 269 268 267 267 268 270 273 276 278 280 283 287 290 293 297 301 303 305 306 306 309 310 312 313 313 313 313 313 314 315 315 313 308 302 295 291 297 308 313 304 285 266 260 263 264 264 268 270 272 272 272 272 272 272 274 275 275 276
244 243 243 244 246 249 251 253 254 255 258 264 268 268 270 271 272 272 272 272 272 273 274 273 271 269 268 267 266 265 265 267 269 271 272 274 277 281 284 287 291 295 298 300 302 303 304 307 308 308 311 313 314 314 313 314 314 314 312 308 301 291 284 286 294 300 299 288 274 264 261 261 262 264 266 267 269 269 268 266 265 267 268 270 272
241 241 240 240 242 246 248 250 251 251 258 271 280 282 280 278 277 277 277 275 273 273 273 274 274 271 269 267 265 264 264 265 267 267 269 272 276 280 283 285 288 291 294 297 298 300 303 304 304 304 306 308 311 312 312 313 313 313 311 307 301 290 280 278 283 286 286 284 280 274 267 263 263 264 266 265 264 266 267 267 267 267 268 268 269
239 238 238 238 239 242 244 247 247 249 260 278 294 295 291 287 285 283 280 277 273 270 269 272 274 274 272 270 267 265 264 264 266 267 269 273 276 279 281 283 286 289 291 293 293 295 299 301 301 301 302 304 307 310 312 312 311 311 309 306 301 292 280 274 277 280 281 281 280 279 277 274 272 271 269 265 262 261 262 264 265 266 266 267 266
239 238 237 237 236 239 241 244 245 248 255 260 274 283 285 290 291 283 280 280 274 268 270 273 274 274 273 273 272 270 268 267 268 270 272 274 275 277 280 282 283 285 287 287 288 291 295 298 299 299 300 302 304 307 309 310 309 307 305 303 300 294 284 277 277 278 279 280 281 281 282 283 284 284 280 274 269 265 263 262 262 263 264 265 265
Height
10897 10897 10897 10897 10899 10899 10899 10898 10897 10896 10896 10896 10896 10895 10895 10894 10894 10892 10891 10890 10889 10888 10886 10885 10884 10884 10884 10884 10882 10880 10879 10877 10876 10875 10873 10872 10870 10867 10865 10862 10860 10858 10856 10853 10851 10850 10848 10845 10843 10840 10838 10836 10834 10831 10829 10827 10825 10822 10820 10818 10816 10814 10812 10811 10809 10807 10805 10804 10802 10801 10799 10798 10798 10797 10796 10795 10794 10793 10791 10790 10789 10788 10787 10787 10786
10893 10893 10893 10893 10894 10895 10894 10893 10892 10891 10892 10892 10892 10891 10891 10890 10890 10889 10888 10887 10886 10884 10882 10881 10880 10879 10879 10880 10878 10876 10874 10873 10872 10870 10869 10867 10866 10863 10860 10858 10855 10853 10851 10849 10847 10845 10843 10841 10839 10836 10834 10832 10830 10827 10825 10822 10821 10819 10817 10814 10812 10810 10809 10807 10805 10804 10802 10801 10799 10798 10797 10796 10795 10794 10793 10792 10791 10790 10789 10787 10786 10785 10784 10784 10783
10889 10888 10888 10889 10890 10890 10888 10888 10887 10887 10887 10887 10888 10888 10887 10887 10887 10886 10885 10884 10882 10880 10878 10877 10875 10875 10875 10875 10874 10872 10870 10868 10867 10866 10865 10863 10862 10859 10856 10853 10851 10849 10847 10845 10843 10841 10839 10837 10834 10832 10830 10828 10826 10823 10820 10818 10817 10815 10813 10811 10809 10807 10805 10804 10802 10800 10799 10798 10796 10795 10794 10794 10793 10792 10791 10790 10789 10787 10786 10785 10784 10783 10782 10781 10781
10884 10884 10884 10884 10885 10885 10883 10883 10882 10882 10882 10882 10883 10883 10883 10883 10883 10882 10881 10880 10878 10876 10874 10872 10871 10870 10870 10869 10868 10867 10865 10864 10863 10862 10860 10859 10858 10855 10852 10849 10847 10845 10843 10840 10838 10836 10835 10833 10830 10828 10826 10824 10822 10819 10816 10814 10813 10811 10810 10808 10805 10803 10802 10800 10799 10797 10796 10795 10794 10793 10792 10791 10790 10789 10788 10787 10786 10785 10784 10782 10781 10781 10780 10779 10778
10879 10879 10879 10879 10880 10880 10879 10878 10878 10877 10876 10877 10878 10879 10879 10879 10879 10878 10877 10875 10873 10872 10870 10868 10867 10866 10865 10864 10863 10862 10860 10859 10858 10857 10856 10855 10854 10851 10848 10845 10843 10841 10839 10836 10834 10832 10830 10828 10826 10824 10822 10820 10817 10815 10812 10810 10809 10807 10806 10804 10802 10800 10798 10797 10796 10794 10793 10792 10791 10790 10790 10789 10788 10787 10786 10784 10783 10782 10781 10780 10779 10778 10777 10776 10776
10875 10874 10874 10874 10875 10875 10875 10874 10873 10872 10871 10871 10873 10874 10875 10875 10874 10873 10872 10870 10869 10867 10865 10864 10863 10861 10860 10859 10858 10857 10855 10855 10854 10853 10852 10851 10849 10847 10844 10841 10839 10837 10835 10832 10830 10827 10825 10824 10822 10820 10818 10815 10813 10811 10808 10806 10805 10804 10802 10800 10799 10797 10795 10794 10793 10792 10790 10789 10788 10788 10787 10786 10785 10784 10783 10782 10780 10779 10778 10777 10776 10775 10774 10773 10772
10870 10869 10869 10869 10870 10871 10871 10871 10869 10867 10867 10867 10868 10869 10870 10870 10869 10868 10867 10865 10864 10862 10861 10860 10858 10856 10854 10853 10852 10851 10850 10850 10849 10849 10848 10846 10844 10842 10840 10838 10835 10833 10831 10828 10825 10823 10821 10819 10817 10816 10814 10811 10809 10807 10805 10803 10801 10800 10798 10797 10795 10793 10792 10790 10790 10789 10788 10787 10786 10785 10785 10784 10783 10782 10781 10779 10778 10777 10776 10775 10774 10772 10771 10770 10769
10864 10864 10864 10865 10865 10866 10866 10866 10865 10864 10863 10863 10864 10865 10866 10865 10864 10863 10862 10860 10859 10857 10856 10855 10853 10851 10849 10848 10847 10846 10846 10845 10845 10844 10843 10842 10840 10838 10836 10834 10831 10828 10826 10824 10821 10818 10816 10814 10813 10812 10809 10807 10805 10803 10801 10799 10797 10796 10794 10793 10792 10790 10789 10788 10787 10785 10785 10784 10783 10783 10782 10781 10781 10780 10778 10776 10775 10774 10773 10772 10771 10770 10768 10767 10765
10858 10858 10859 10860 10861 10862 10861 10861 10860 10860 10860 10859 10860 10861 10861 10861 10859 10858 10857 10855 10854 10853 10852 10851 10848 10846 10845 10843 10842 10842 10841 10841 10841 10840 10839 10838 10836 10834 10832 10830 10827 10824 10822 10819 10816 10813 10811 10809 10809 10808 10805 10802 10800 10799 10797 10795 10794 10792 10791 10789 10788 10787 10786 10785 10784 10782 10782 10781 10781 10781 10780 10779 10778 10777 10775 10774 10773 10772 10771 10770 10769 10767 10765 10763 10762
10853 10853 10854 10855 10856 10856 10856 10855 10856 10856 10856 10856 10856 10856 10856 10855 10854 10853 10852 10851 10849 10848 10847 10846 10844 10842 10840 10839 10838 10838 10837 10837 10836 10835 10835 10834 10832 10830 10828 10826 10824 10821 10818 10815 10811 10808 10806 10805 10804 10804 10802 10798 10796 10794 10793 10792 10790 10789 10788 10786 10785 10783 10782 10781 10781 10780 10779 10779 10779 10778 10777 10776 10776 10774 10773 10772 10771 10770 10769 10768 10766 10764 10762 10761 10759
10847 10848 10849 10850 10850 10850 10851 10851 10851 10852 10852 10853 10852 10851 10851 10850 10849 10847 10846 10845 10844 10843 10842 10841 10839 10838 10836 10835 10834 10834 10833 10832 10832 10831 10831 10830 10829 10826 10824 10822 10820 10817 10814 10810 10807 10804 10801 10800 10800 10800 10799 10795 10792 10790 10789 10788 10786 10785 10784 10783 10781 10780 10779 10778 10777 10777 10777 10777 10776 10776 10775 10774 10773 10772 10771 10770 10769 10768 10767 10766 10763 10761 10760 10758 10757
10840 10841 10843 10844 10845 10845 10846 10846 10847 10847 10848 10848 10848 10847 10845 10844 10843 10842 10841 10840 10839 10837 10836 10835 10834 10833 10832 10831 10830 10829 10829 10828 10827 10828 10827 10827 10825 10823 10820 10818 10816 10813 10810 10807 10803 10800 10797 10796 10796 10797 10796 10793 10788 10786 10784 10784 10783 10782 10780 10779 10778 10777 10776 10775 10775 10774 10774 10774 10774 10773 10773 10772 10771 10770 10769 10768 10767 10766 10765 10763 10761 10759 10757 10756 10754
10834 10836 10837 10838 10839 10840 10841 10841 10842 10842 10843 10843 10843 10842 10840 10839 10837 10836 10835 10834 10833 10832 10831 10830 10829 10828 10827 10826 10826 10825 10824 10824 10824 10824 10824 10823 10821 10819 10816 10814 10812 10809 10806 10803 10800 10796 10793 10792 10791 10791 10792 10789 10785 10782 10780 10779 10779 10778 10777 10776 10775 10774 10773 10772 10772 10772 10772 10772 10771 10771 10770 10770 10769 10768 10767 10766 10765 10764 10764 10762 10759 10757 10755 10754 10753
10829 10831 10832 10833 10834 10835 10836 10836 10836 10837 10837 10838 10837 10836 10834 10833 10832 10830 10829 10828 10828 10827 10826 10825 10824 10823 10823 10822 10821 10820 10819 10819 10820 10820 10820 10819 10817 10815 10812 10810 10808 10805 10802 10800 10796 10793 10790 10788 10787 10786 10787 10786 10782 10779 10776 10775 10775 10775 10774 10773 10772 10770 10770 10769 10769 10769 10769 10769 10769 10769 10768 10768 10767 10766 10765 10764 10763 10763 10762 10760 10758 10755 10754 10752 10751
10824 10826 10827 10828 10829 10829 10830 10830 10831 10831 10832 10832 10831 10830 10828 10827 10826 10825 10825 10823 10823 10822 10821 10820 10820 10819 10818 10817 10816 10815 10814 10815 10816 10816 10816 10815 10813 10811 10809 10806 10804 10802 10799 10796 10793 10789 10786 10784 10783 10782 10782 10781 10778 10776 10774 10772 10772 10772 10771 10770 10768 10767 10766 10766 10766 10766 10767 10767 10767 10766 10766 10765 10765 10764 10763 10762 10762 10761 10760 10758 10756 10754 10752 10750 10749
10819 10821 10822 10823 10823 10823 10824 10825 10825 10826 10826 10825 10824 10823 10822 10822 10821 10821 10820 10819 10818 10818 10817 10816 10815 10814 10814 10813 10811 10810 10810 10811 10812 10812 10812 10810 10809 10808 10806 10803 10801 10799 10796 10793 10790 10786 10783 10780 10779 10777 10777 10776 10774 10772 10770 10769 10768 10769 10768 10766 10765 10764 10763 10764 10764 10764 10764 10764 10764 10764 10764 10763 10763 10762 10761 10761 10760 10759 10758 10757 10754 10752 10751 10749 10748
10814 10815 10816 10816 10817 10817 10818 10819 10820 10820 10819 10819 10818 10817 10817 10816 10817 10816 10815 10814 10814 10813 10812 10811 10811 10810 10809 10808 10806 10806 10807 10807 10808 10807 10807 10807 10806 10804 10803 10801 10798 10795 10792 10790 10787 10783 10780 10777 10775 10773 10772 10771 10770 10768 10767 10766 10765 10765 10764 10763 10762 10761 10761 10761 10761 10761 10762 10762 10762 10762 10761 10761 10761 10760 10759 10759 10758 10757 10756 10755 10753 10751 10749 10748 10747
10808 10808 10809 10810 10811 10811 10812 10813 10813 10813 10812 10812 10812 10811 10811 10811 10812 10811 10810 10809 10809 10809 10808 10807 10806 10805 10804 10803 10802 10803 10803 10803 10803 10803 10803 10803 10802 10801 10800 10798 10795 10792 10789 10786 10783 10780 10777 10773 10771 10768 10767 10766 10766 10766 10764 10763 10762 10761 10760 10760 10759 10758 10758 10758 10758 10758 10759 10759 10760 10759 10759 10759 10759 10758 10758 10757 10756 10756 10755 10753 10752 10750 10748 10747 10745
10801 10802 10803 10804 10805 10806 10806 10807 10807 10806 10806 10806 10805 10805 10805 10806 10806 10805 10804 10804 10804 10803 10802 10802 10801 10801 10800 10799 10799 10800 10800 10799 10799 10798 10799 10799 10799 10798 10797 10795 10793 10790 10786 10783 10780 10777 10773 10769 10766 10764 10763 10762 10762 10763 10761 10760 10759 10758 10757 10756 10756 10755 10755 10755 10755 10755 10756 10757 10757 10757 10757 10757 10756 10756 10756 10755 10754 10754 10753 10752 10750 10748 10747 10745 10744
10795 10796 10797 10798 10799 10799 10800 10800 10800 10799 10799 10800 10799 10799 10799 10800 10800 10799 10799 10799 10798 10798 10797 10797 10797 10796 10795 10795 10796 10796 10796 10795 10795 10795 10795 10795 10795 10794 10793 10792 10790 10788 10785 10781 10778 10775 10770 10766 10763 10761 10759 10759 10758 10759 10759 10757 10756 10755 10754 10753 10753 10753 10752 10752 10752 10753 10754 10755 10755 10755 10755 10755 10754 10754 10753 10753 10752 10752 10751 10750 10749 10747 10745 10744 10743
10790 10792 10793 10792 10792 10793 10793 10793 10792 10792 10793 10793 10793 10793 10793 10793 10794 10794 10794 10793 10793 10792 10792 10793 10793 10792 10792 10792 10792 10792 10792 10791 10791 10791 10791 10790 10790 10790 10789 10788 10786 10785 10783 10780 10776 10772 10768 10763 10760 10758 10756 10756 10755 10755 10755 10754 10752 10751 10751 10750 10750 10750 10750 10750 10750 10750 10751 10752 10752 10752 10752 10752 10752 10751 10751 10751 10750 10750 10749 10748 10747 10746 10744 10743 10742
10786 10787 10787 10785 10785 10785 10786 10786 10785 10786 10786 10787 10787 10787 10787 10787 10788 10788 10788 10788 10788 10788 10788 10789 10789 10788 10788 10788 10789 10789 10788 10788 10787 10787 10787 10786 10785 10785 10785 10784 10783 10781 10779 10777 10773 10768 10765 10761 10757 10755 10753 10753 10752 10751 10751 10751 10749 10748 10748 10748 10747 10747 10747 10747 10747 10747 10748 10749 10749 10750 10750 10750 10750 10749 10749 10748 10748 10748 10747 10746 10745 10744 10743 10741 10741
10780 10781 10781 10779 10778 10778 10779 10779 10779 10780 10780 10781 10781 10781 10781 10781 10782 10783 10783 10783 10783 10784 10784 10785 10785 10785 10784 10784 10785 10785 10784 10784 10784 10783 10782 10781 10781 10780 10781 10781 10780 10778 10776 10774 10770 10766 10762 10758 10754 10752 10750 10749 10748 10747 10747 10747 10746 10745 10745 10745 10745 10744 10744 10744 10744 10745 10745 10746 10747 10747 10747 10747 10747 10747 10747 10746 10746 10745 10745 10744 10743 10743 10741 10740 10739
10773 10775 10775 10773 10772 10772 10772 10773 10774 10775 10775 10775 10775 10775 10776 10776 10777 10778 10778 10778 10779 10780 10780 10781 10781 10781 10781 10781 10781 10781 10780 10780 10780 10779 10778 10777 10777 10776 10776 10777 10777 10775 10772 10770 10767 10764 10759 10755 10752 10749 10747 10745 10744 10743 10742 10743 10743 10743 10742 10742 10742 10742 10741 10741 10741 10742 10743 10743 10744 10744 10744 10744 10744 10744 10744 10744 10743 10743 10743 10742 10741 10741 10739 10738 10737
10767 10769 10768 10766 10766 10766 10767 10768 10770 10771 10771 10771 10771 10771 10772 10773 10773 10773 10773 10774 10775 10776 10776 10777 10777 10776 10776 10777 10777 10777 10776 10776 10776 10775 10774 10773 10772 10772 10772 10772 10773 10772 10770 10767 10764 10761 10757 10753 10750 10746 10744 10741 10740 10738 10738 10738 10739 10739 10739 10739 10739 10739 10739 10738 10739 10739 10740 10741 10741 10741 10741 10741 10741 10741 10741 10741 10741 10740 10740 10740 10739 10738 10738 10736 10735
10762 10762 10760 10760 10760 10760 10762 10763 10765 10766 10767 10767 10768 10768 10769 10769 10769 10769 10769 10770 10771 10772 10772 10772 10772 10772 10772 10773 10773 10773 10772 10772 10772 10771 10769 10768 10768 10768 10768 10768 10768 10768 10766 10764 10761 10757 10754 10751 10748 10744 10741 10738 10736 10735 10734 10734 10735 10735 10735 10736 10736 10736 10736 10736 10736 10736 10737 10738 10738 10738 10738 10738 10738 10738 10738 10738 10738 10738 10738 10737 10737 10736 10736 10734 10733
10756 10755 10755 10755 10754 10756 10758 10758 10760 10761 10762 10763 10764 10765 10766 10766 10765 10766 10766 10766 10767 10768 10768 10768 10768 10768 10768 10768 10769 10769 10769 10768 10768 10766 10765 10764 10763 10763 10763 10764 10764 10764 10762 10760 10758 10755 10751 10748 10745 10741 10738 10735 10734 10733 10732 10731 10731 10731 10731 10732 10732 10733 10734 10734 10734 10734 10734 10734 10735 10735 10735 10736 10736 10736 10735 10735 10735 10735 10735 10735 10735 10734 10734 10732 10731
10750 10749 10749 10749 10750 10752 10753 10753 10754 10756 10757 10759 10761 10762 10763 10763 10762 10762 10762 10763 10763 10764 10764 10765 10765 10764 10764 10764 10765 10765 10765 10764 10764 10762 10761 10760 10759 10759 10759 10760 10760 10759 10758 10757 10754 10752 10749 10746 10743 10740 10736 10733 10731 10730 10729 10728 10728 10728 10728 10729 10729 10730 10731 10731 10731 10731 10731 10731 10732 10732 10733 10733 10733 10733 10733 10733 10733 10732 10732 10732 10732 10732 10732 10730 10729
10746 10745 10743 10743 10744 10746 10747 10748 10748 10750 10752 10755 10757 10759 10759 10760 10759 10759 10759 10759 10760 10760 10761 10761 10761 10761 10761 10761 10761 10760 10760 10760 10759 10758 10757 10756 10755 10755 10756 10756 10756 10755 10754 10753 10751 10748 10746 10744 10741 10738 10734 10731 10729 10728 10727 10726 10726 10726 10726 10726 10727 10727 10728 10728 10728 10728 10728 10729 10729 10729 10729 10730 10730 10730 10730 10730 10730 10730 10730 10730 10730 10730 10730 10729 10728
10740 10740 10738 10737 10738 10739 10741 10742 10743 10745 10748 10751 10753 10755 10756 10756 10756 10755 10755 10755 10756 10756 10756 10756 10756 10756 10756 10756 10756 10756 10756 10756 10755 10754 10753 10752 10752 10752 10752 10753 10752 10751 10750 10749 10747 10745 10742 10740 10738 10735 10732 10729 10728 10726 10725 10724 10724 10723 10723 10724 10724 10724 10725 10725 10725 10725 10725 10726 10726 10726 10726 10726 10727 10728 10728 10728 10728 10728 10728 10728 10728 10728 10728 10727 10726
10734 10734 10733 10733 10733 10734 10736 10737 10738 10739 10743 10747 10749 10750 10751 10751 10751 10751 10751 10752 10751 10751 10752 10751 10751 10751 10752 10752 10752 10752 10752 10752 10751 10750 10749 10748 10748 10748 10749 10749 10749 10748 10747 10745 10744 10741 10739 10737 10735 10732 10729 10727 10725 10724 10723 10722 10721 10721 10721 10721 10721 10721 10722 10723 10723 10723 10722 10723 10723 10723 10723 10723 10724 10725 10725 10725 10725 10726 10726 10726 10726 10725 10726 10725 10724
10727 10727 10728 10729 10728 10729 10731 10732 10733 10735 10739 10742 10744 10745 10745 10745 10746 10746 10747 10747 10747 10747 10747 10746 10746 10747 10747 10748 10748 10748 10748 10747 10747 10746 10745 10745 10744 10745 10745 10746 10745 10745 10743 10742 10740 10738 10736 10734 10732 10729 10727 10725 10723 10722 10721 10720 10719 10719 10719 10719 10719 10719 10720 10720 10720 10720 10720 10720 10720 10720 10720 10720 10721 10722 10722 10722 10723 10724 10724 10723 10723 10723 10723 10723 10722
10721 10721 10723 10724 10724 10725 10726 10726 10727 10731 10734 10737 10740 10740 10739 10739 10741 10742 10742 10743 10743 10743 10742 10741 10742 10743 10743 10744 10744 10744 10744 10743 10743 10742 10742 10741 10741 10741 10742 10742 10742 10742 10740 10739 10737 10735 10733 10731 10729 10726 10724 10722 10721 10720 10719 10718 10718 10717 10717 10716 10716 10717 10717 10717 10717 10716 10716 10716 10716 10717 10717 10717 10718 10719 10719 10720 10720 10721 10721 10721 10721 10721 10721 10721 10720
10715 10716 10717 10717 10718 10719 10720 10721 10722 10725 10729 10732 10735 10734 10732 10733 10735 10737 10738 10738 10739 10738 10738 10737 10737 10738 10739 10739 10739 10739 10739 10739 10739 10739 10739 10738 10738 10738 10738 10739 10739 10738 10737 10736 10734 10732 10731 10729 10727 10724 10722 10720 10718 10718 10717 10717 10716 10715 10714 10714 10714 10714 10714 10714 10713 10712 10712 10711 10712 10713 10713 10713 10715 10715 10716 10717 10717 10718 10718 10718 10718 10718 10719 10719 10718
10708 10709 10710 10711 10712 10714 10716 10716 10716 10719 10723 10726 10729 10729 10728 10729 10731 10732 10733 10733 10734 10734 10734 10733 10733 10734 10735 10735 10735 10735 10735 10735 10736 10736 10736 10735 10735 10735 10735 10735 10735 10734 10734 10733 10732 10730 10728 10727 10725 10722 10720 10718 10717 10716 10715 10715 10714 10712 10711 10711 10711 10711 10710 10711 10710 10708 10707 10706 10708 10709 10709 10710 10711 10712 10712 10713 10713 10714 10715 10715 10715 10716 10716 10717 10716
10702 10702 10703 10705 10708 10710 10711 10712 10711 10713 10717 10721 10724 10725 10725 10726 10726 10727 10728 10728 10729 10730 10730 10729 10728 10730 10731 10731 10731 10731 10732 10732 10732 10732 10733 10732 10731 10732 10732 10732 10731 10731 10730 10730 10729 10727 10726 10725 10723 10721 10719 10717 10715 10714 10713 10712 10711 10709 10708 10707 10707 10707 10706 10706 10706 10704 10702 10703 10704 10705 10705 10706 10708 10708 10709 10709 10710 10711 10712 10713 10713 10713 10714 10714 10714
10696 10698 10701 10703 10704 10706 10707 10707 10707 10708 10711 10715 10718 10720 10720 10721 10722 10722 10723 10723 10724 10725 10725 10725 10724 10725 10727 10727 10727 10727 10728 10728 10729 10729 10729 10729 10728 10728 10728 10728 10728 10727 10727 10726 10726 10725 10723 10722 10721 10719 10717 10716 10714 10712 10711 10710 10709 10707 10706 10704 10704 10703 10702 10702 10701 10699 10699 10700 10701 10701 10702 10703 10704 10705 10705 10706 10707 10708 10709 10710 10710 10711 10711 10712 10712
10692 10695 10699 10701 10700 10701 10701 10701 10702 10704 10706 10708 10711 10712 10713 10715 10716 10717 10717 10718 10719 10719 10720 10721 10720 10721 10722 10722 10723 10724 10724 10724 10725 10725 10726 10725 10725 10725 10725 10725 10725 10724 10724 10724 10723 10722 10721 10720 10718 10717 10715 10714 10712 10711 10709 10708 10706 10705 10703 10702 10702 10701 10699 10698 10696 10696 10696 10698 10698 10698 10699 10700 10701 10701 10702 10703 10704 10705 10706 10707 10707 10708 10708 10709 10710
10686 10689 10692 10695 10695 10695 10695 10695 10697 10699 10701 10702 10704 10706 10707 10709 10710 10711 10711 10712 10713 10714 10715 10716 10716 10716 10717 10718 10719 10719 10720 10721 10722 10722 10722 10722 10722 10721 10722 10722 10722 10721 10720 10720 10720 10719 10718 10717 10716 10715 10713 10712 10711 10709 10708 10706 10704 10703 10701 10701 10701 10699 10697 10695 10693 10693 10694 10696 10696 10696 10696 10697 10698 10699 10700 10701 10702 10703 10703 10704 10704 10705 10705 10706 10707
10681 10683 10684 10686 10688 10688 10690 10691 10693 10695 10696 10697 10699 10701 10702 10703 10705 10705 10706 10707 10708 10709 10710 10711 10712 10712 10712 10713 10715 10715 10716 10717 10718 10718 10719 10719 10718 10718 10718 10719 10719 10718 10717 10717 10717 10715 10715 10714 10713 10712 10711 10710 10709 10708 10706 10704 10703 10701 10700 10699 10699 10697 10694 10692 10691 10691 10692 10694 10694 10693 10694 10695 10696 10697 10698 10698 10699 10700 10701 10701 10701 10702 10703 10704 10704
10675 10677 10677 10679 10681 10683 10686 10687 10689 10689 10690 10692 10694 10696 10697 10698 10699 10700 10701 10702 10703 10704 10705 10706 10707 10707 10708 10709 10710 10711 10713 10714 10714 10715 10715 10715 10715 10714 10715 10715 10715 10715 10714 10714 10713 10712 10711 10711 10710 10709 10709 10708 10707 10706 10704 10703 10701 10700 10698 10698 10697 10694 10692 10691 10689 10689 10690 10690 10691 10691 10691 10692 10693 10694 10695 10696 10696 10697 10698 10698 10698 10699 10700 10701 10701
10669 10671 10672 10674 10676 10678 10681 10682 10683 10684 10685 10687 10688 10691 10692 10693 10694 10695 10696 10697 10698 10700 10701 10702 10702 10703 10703 10704 10706 10707 10709 10710 10710 10711 10711 10711 10711 10711 10711 10712 10712 10712 10711 10711 10710 10709 10708 10708 10707 10706 10706 10705 10705 10704 10703 10702 10700 10698 10697 10696 10696 10693 10691 10689 10688 10688 10687 10687 10687 10688 10688 10690 10691 10692 10692 10692 10693 10693 10694 10695 10695 10696 10697 10697 10698
10664 10666 10668 10669 10671 10673 10675 10677 10678 10679 10680 10682 10684 10686 10687 10688 10689 10690 10692 10693 10693 10695 10697 10697 10697 10698 10699 10700 10702 10703 10704 10706 10707 10707 10707 10707 10707 10707 10708 10709 10709 10709 10708 10708 10707 10706 10706 10705 10704 10704 10703 10703 10703 10702 10701 10700 10699 10698 10696 10696 10695 10693 10690 10688 10687 10686 10685 10685 10685 10685 10686 10687 10688 10688 10689 10689 10690 10690 10690 10691 10692 10693 10694 10694 10694
10660 10661 10662 10665 10666 10667 10669 10671 10673 10675 10676 10677 10679 10681 10683 10684 10685 10686 10688 10689 10689 10691 10692 10692 10692 10693 10695 10696 10698 10699 10701 10702 10703 10704 10704 10704 10704 10704 10705 10705 10706 10706 10705 10705 10704 10704 10703 10703 10702 10701 10700 10700 10700 10700 10700 10699 10697 10696 10695 10695 10694 10692 10689 10687 10686 10685 10684 10683 10683 10683 10683 10684 10685 10685 10686 10687 10687 10687 10687 10688 10689 10689 10689 10690 10690
10654 10655 10656 10659 10661 10663 10664 10667 10669 10672 10673 10674 10675 10678 10679 10680 10681 10683 10684 10685 10686 10686 10687 10687 10688 10689 10691 10692 10694 10695 10697 10698 10699 10700 10700 10701 10701 10701 10701 10702 10702 10702 10702 10702 10701 10701 10701 10700 10699 10698 10698 10698 10698 10698 10697 10697 10696 10694 10694 10693 10692 10691 10689 10687 10685 10684 10682 10681 10681 10681 10681 10681 10681 10682 10683 10683 10684 10683 10684 10684 10684 10685 10685 10685 10685
10648 10650 10652 10654 10656 10658 10661 10663 10666 10668 10669 10670 10672 10675 10676 10677 10678 10679 10680 10681 10682 10682 10683 10684 10685 10686 10687 10688 10690 10692 10693 10694 10695 10696 10697 10697 10697 10698 10698 10698 10698 10699 10699 10699 10699 10698 10698 10698 10697 10696 10695 10695 10695 10695 10695 10694 10693 10692 10692 10691 10690 10689 10687 10685 10684 10683 10681 10680 10679 10679 10678 10678 10678 10678 10679 10680 10680 10680 10680 10680 10680 10680 10680 10680 10680
10643 10645 10647 10650 10652 10655 10658 10661 10664 10666 10667 10668 10670 10671 10672 10673 10675 10676 10677 10678 10678 10679 10680 10681 10682 10682 10683 10685 10686 10688 10689 10691 10692 10693 10693 10694 10694 10694 10695 10695 10695 10695 10695 10695 10696 10696 10695 10695 10694 10694 10693 10693 10692 10692 10692 10691 10691 10690 10689 10688 10687 10686 10685 10683 10683 10682 10680 10679 10678 10678 10677 10677 10676 10676 10676 10677 10677 10677 10677 10677 10677 10677 10676 10676 10677
10638 10641 10643 10646 10649 10652 10655 10658 10661 10663 10664 10666 10668 10669 10670 10671 10671 10673 10674 10674 10675 10676 10677 10677 10678 10679 10680 10681 10683 10684 10686 10687 10688 10689 10690 10690 10690 10691 10691 10691 10691 10692 10692 10692 10692 10692 10692 10692 10691 10691 10691 10690 10690 10689 10689 10688 10688 10687 10687 10686 10685 10684 10682 10681 10680 10680 10679 10677 10677 10676 10676 10675 10674 10674 10674 10674 10674 10674 10674 10675 10675 10675 10674 10674 10675
10633 10636 10639 10642 10645 10648 10651 10655 10658 10660 10663 10665 10667 10667 10667 10668 10669 10670 10670 10671 10672 10674 10674 10674 10675 10676 10677 10678 10679 10681 10682 10683 10685 10685 10686 10686 10687 10687 10687 10687 10688 10688 10688 10689 10689 10689 10689 10689 10688 10688 10687 10687 10687 10686 10686 10686 10685 10684 10684 10683 10682 10681 10680 10679 10678 10678 10677 10676 10675 10674 10674 10673 10673 10672 10672 10672 10672 10672 10672 10672 10672 10672 10672 10672 10672
10628 10631 10634 10638 10641 10644 10647 10651 10655 10659 10663 10665 10664 10663 10663 10665 10666 10666 10666 10666 10668 10670 10671 10671 10672 10673 10674 10675 10676 10677 10679 10680 10681 10682 10682 10683 10683 10683 10683 10684 10684 10684 10685 10685 10685 10685 10686 10685 10685 10684 10684 10684 10683 10683 10683 10682 10682 10681 10681 10680 10680 10679 10678 10677 10676 10675 10674 10673 10673 10672 10671 10671 10670 10670 10669 10669 10669 10669 10669 10669 10668 10668 10668 10668 10667
10624 10627 10630 10633 10637 10640 10644 10649 10654 10659 10663 10664 10663 10662 10662 10664 10664 10662 10660 10660 10663 10665 10666 10668 10668 10669 10671 10672 10673 10674 10675 10676 10677 10678 10678 10679 10679 10679 10680 10680 10680 10680 10681 10681 10682 10682 10682 10682 10682 10681 10680 10680 10680 10679 10679 10679 10679 10678 10678 10677 10676 10676 10675 10674 10674 10673 10672 10671 10670 10669 10669 10668 10668 10668 10667 10666 10666 10666 10665 10665 10664 10664 10663 10663 10663